Simultaneous Nadir Overpasses (SNOs) Predictions

Prediction of SNOs between METOP-A and NOAA-19 Satellite Orbit:

Table of predicted SNOs for the next 14.0 days since TLE Epoch: 2/10/2012
Index Date (METOP-A) Time (METOP-A) METOP-A Lat,Lon Date (NOAA-19) Time (NOAA-19) NOAA-19 Lat,Lon Distance(km) Time Diff (sec)
1 02/18/2012 04:05:23 -73.20, -68.52 02/18/2012 04:04:09 -73.20, -68.94 13.53 74
2 02/18/2012 04:56:04 73.11, 98.61 02/18/2012 04:55:05 73.08, 98.58 3.28 59
3 02/18/2012 05:46:47 -73.08, -94.12 02/18/2012 05:46:12 -73.08, -94.19 2.56 35
4 02/18/2012 06:37:27 73.04, 73.13 02/18/2012 06:37:10 73.06, 73.11 1.98 17
5 02/18/2012 07:28:10 -73.02,-119.60 02/18/2012 07:28:16 -73.00,-119.55 2.14 6
6 02/18/2012 08:18:50 72.97, 47.64 02/18/2012 08:19:14 72.98, 47.75 3.68 24
7 02/18/2012 09:09:32 -73.00,-144.98 02/18/2012 09:10:21 -72.98,-145.03 2.57 49
8 02/18/2012 10:00:12 72.95, 22.26 02/18/2012 10:01:19 72.96, 22.27 0.79 67
9 02/18/2012 10:51:07 -72.32,-171.71 02/18/2012 10:52:14 -72.36,-169.24 83.27 67




NCC Satellite Simultaneous Nadir Overpasses (SNOs) Prediction Service
